Location: *
(43.4667°N, 11.6833°E)
Time: 02:39:56
(UTC+00:00)

Meteor 1-25 Rocket - Pass Details

Date: 19 July 2019
Orbit: 838 x 891 km, 81.2° (Epoch: 21 August)

Event Time Altitude Azimuth Distance (km) Brightness Sun altitude
Exits shadow 23:10:40 73° 163° (SSE) 878 4.0 -25.7°
Maximum altitude 23:11:11 83° 99° (E) 852 4.1 -25.7°
Drops below altitude 10° 23:16:47 10° 12° (NNE) 2,473 7.6 -25.8°
Sets 23:19:13 0° 12° (NNE) 3,418 8.6 -25.8°
